Satellite: OKEAN-4
Catalog number: 23317
Epoch time:      09280.66558007
Element set:    0040
Inclination:      082.5399 deg
RA of node:       229.5100 deg
Eccentricity:    0.0022512
Arg of perigee:   358.8352 deg
Mean anomaly:     001.2806 deg
Mean motion:   14.82725673 rev/day
Decay rate:       2.03e-06 rev/day^2
Epoch rev:           80903
Checksum:              278

Satellite: NOAA-14
Catalog number: 23455
Epoch time:      09280.91112099
Element set:    0785
Inclination:      098.9016 deg
RA of node:       358.1493 deg
Eccentricity:    0.0008823
Arg of perigee:   227.1449 deg
Mean anomaly:     132.8967 deg
Mean motion:   14.13770927 rev/day
Decay rate:       2.15e-06 rev/day^2
Epoch rev:           76185
Checksum:              333

Satellite: NOAA-15
Catalog number: 25338
Epoch time:      09280.62566787
Element set:    0111
Inclination:      098.5959 deg
RA of node:       267.4300 deg
Eccentricity:    0.0011738
Arg of perigee:   090.5168 deg
Mean anomaly:     269.7336 deg
Mean motion:   14.24786983 rev/day
Decay rate:        4.1e-07 rev/day^2
Epoch rev:           59278
Checksum:              347

Satellite: RESURS
Catalog number: 25394
Epoch time:      09280.92048615
Element set:    0345
Inclination:      098.3327 deg
RA of node:       307.4875 deg
Eccentricity:    0.0000531
Arg of perigee:   243.4385 deg
Mean anomaly:     116.6740 deg
Mean motion:   14.24188330 rev/day
Decay rate:       -4.1e-07 rev/day^2
Epoch rev:           58444
Checksum:              293

Satellite: FENGYUN1
Catalog number: 25730
Epoch time:      09280.92007045
Element set:    0872
Inclination:      098.7636 deg
RA of node:       247.7460 deg
Eccentricity:    0.0020997
Arg of perigee:   258.0699 deg
Mean anomaly:     101.8116 deg
Mean motion:   14.08002087 rev/day
Decay rate:       3.89e-06 rev/day^2
Epoch rev:           53618
Checksum:              316

Satellite: OKEAN-0
Catalog number: 25860
Epoch time:      09280.75470615
Element set:     803
Inclination:      097.7998 deg
RA of node:       257.5425 deg
Eccentricity:    0.0001172
Arg of perigee:   101.6818 deg
Mean anomaly:     258.4517 deg
Mean motion:   14.73590637 rev/day
Decay rate:        3.1e-07 rev/day^2
Epoch rev:           54972
Checksum:              320

Satellite: NOAA-16
Catalog number: 26536
Epoch time:      09280.63523620
Element set:    0590
Inclination:      099.1800 deg
RA of node:       287.0452 deg
Eccentricity:    0.0010065
Arg of perigee:   330.0886 deg
Mean anomaly:     029.9681 deg
Mean motion:   14.12535444 rev/day
Decay rate:       1.71e-06 rev/day^2
Epoch rev:           46617
Checksum:              295

Satellite: NOAA-17
Catalog number: 27453
Epoch time:      09280.90938415
Element set:    0583
Inclination:      098.4707 deg
RA of node:       336.0241 deg
Eccentricity:    0.0012307
Arg of perigee:   150.6224 deg
Mean anomaly:     209.5635 deg
Mean motion:   14.24096894 rev/day
Decay rate:       1.95e-06 rev/day^2
Epoch rev:           37879
Checksum:              326

Satellite: NOAA-18
Catalog number: 28654
Epoch time:      09280.91543524
Element set:    0071
Inclination:      098.9179 deg
RA of node:       223.3263 deg
Eccentricity:    0.0015084
Arg of perigee:   047.2405 deg
Mean anomaly:     313.0081 deg
Mean motion:   14.11290338 rev/day
Decay rate:        5.2e-07 rev/day^2
Epoch rev:           22585
Checksum:              286

Satellite: NOAA-19
Catalog number: 33591
Epoch time:      09280.91963383
Element set:    0276
Inclination:      098.7572 deg
RA of node:       223.7961 deg
Eccentricity:    0.0013270
Arg of perigee:   285.9174 deg
Mean anomaly:     074.0567 deg
Mean motion:   14.10989645 rev/day
Decay rate:       -3.4e-07 rev/day^2
Epoch rev:           03433
Checksum:              332

/EX
SB KEPS @ AMSAT  $ORB09281.M
Orbital Elements  09281.MISC

HR AMSAT ORBITAL ELEMENTS FOR MANNED AND MISCELLANEOUS SATELLITES
FROM WA5QGD FORT WORTH,TX October 8, 2009
Send Subscribe/unsubscribe to KEPS at 
http://www.amsat.org/mailman/listinfo/keps
BID: ORB09281.M
TO ALL RADIO AMATEURS BT

Satellite: HUBBLE
Catalog number: 20580
Epoch time:      09279.89851369
Element set:    0458
Inclination:      028.4687 deg
RA of node:       093.2015 deg
Eccentricity:    0.0003125
Arg of perigee:   031.7239 deg
Mean anomaly:     328.3580 deg
Mean motion:   15.00837150 rev/day
Decay rate:       3.75e-06 rev/day^2
Epoch rev:           86665
Checksum:              313

Satellite: ISS
Catalog number: 25544
Epoch time:      09281.83912093
Element set:     748
Inclination:      051.6385 deg
RA of node:       083.2882 deg
Eccentricity:    0.0008095
Arg of perigee:   175.9703 deg
Mean anomaly:     325.2543 deg
Mean motion:   15.74680102 rev/day
Decay rate:     1.0859e-04 rev/day^2
Epoch rev:           62385
Checksum:              319

Satellite: CO-58
Catalog number: 28895
Epoch time:      09281.23000602
Element set:     414
Inclination:      098.0413 deg
RA of node:       168.5777 deg
Eccentricity:    0.0017893
Arg of perigee:   358.0110 deg
Mean anomaly:     002.1000 deg
Mean motion:   14.59800847 rev/day
Decay rate:        3.9e-07 rev/day^2
Epoch rev:           21022
Checksum:              278

